W0DP Weather Reports


Display with metric or nautical units.
time (UTC)temp
F
wind
direction
speed
MPH
gust
MPH
rain 1hr
in
rain 24hr
in
rain mn
in
humidity
%
barometer
mb
20260507072035 38 0.0 0.0 0.00 0.00 0.00 82 1016.0
20260507071015 38 0.0 0.0 0.00 0.00 0.00 83 1016.1
20260507070015 38 0.0 0.0 0.00 0.00 0.00 82 1016.1
20260507065015 38 0.0 0.0 0.00 0.00 0.00 82 1016.1
20260507064017 39 0.0 0.0 0.00 0.00 0.00 81 1016.2
20260507063017 39 0.0 0.0 0.00 0.00 0.00 82 1016.2
20260507062017 39 0.0 0.0 0.00 0.00 0.00 81 1016.2
20260507061017 39 0.0 0.0 0.00 0.00 0.00 81 1016.3
20260507060037 39 0.0 0.0 0.00 0.00 0.00 81 1016.5
20260507055017 39 0.0 0.0 0.00 0.00 0.00 80 1016.6
20260507054017 39 0.0 0.0 0.00 0.00 0.00 79 1016.5
20260507053017 39 0.0 0.0 0.00 0.00 0.00 79 1016.5
20260507052017 39 0.0 0.0 0.00 0.00 0.00 77 1016.7
20260507051017 39 0.0 0.0 0.00 0.00 0.00 78 1016.4
20260507050037 40 0.0 0.0 0.00 0.00 0.00 77 1016.7
20260507045017 41 0.0 0.0 0.00 0.00 0.00 77 1016.8
20260507044017 41 0.0 0.0 0.00 0.00 0.00 76 1016.8
20260507043017 42 0.0 0.0 0.00 0.00 0.00 76 1016.9
20260507042017 42 0.0 0.0 0.00 0.00 0.00 77 1017.0
20260507041017 42 0.0 0.0 0.00 0.00 0.00 75 1017.1
20260507040017 42 0.0 0.0 0.00 0.00 0.00 72 1017.1
20260507035117 42 0.0 0.0 0.00 0.00 0.00 69 1017.2
20260507034017 42 0.0 0.0 0.00 0.00 0.00 67 1017.2
20260507033017 43 0.0 0.0 0.00 0.00 0.00 63 1017.3
20260507032057 43 0.0 0.0 0.00 0.00 0.00 61 1017.4
20260507031037 44 0.0 0.0 0.00 0.00 0.00 60 1017.6
20260507030017 45 0.0 0.0 0.00 0.00 0.00 57 1017.7
20260507025017 46 0.0 0.0 0.00 0.00 0.00 54 1017.6
20260507024017 47 0.0 0.0 0.00 0.00 0.00 56 1017.6
20260507023016 46 0.0 0.0 0.00 0.00 0.00 55 1017.4
20260507022017 46 0.0 0.0 0.00 0.00 0.00 55 1017.5
20260507021017 47 0.0 0.0 0.00 0.00 0.00 55 1017.5
20260507020016 48 0.0 0.0 0.00 0.00 0.00 54 1017.1
20260507015037 49 0.0 0.0 0.00 0.00 0.00 50 1017.2
20260507014016 49 0.0 0.0 0.00 0.00 0.00 46 1017.1
20260507013016 50 0.0 0.0 0.00 0.00 0.00 44 1016.9
20260507012037 51 0.0 0.0 0.00 0.00 0.00 43 1016.9
20260507011017 51 0.0 0.0 0.00 0.00 0.00 42 1016.9
20260507010016 52 0.0 0.0 0.00 0.00 0.00 41 1017.1
20260507005017 53 0.0 0.0 0.00 0.00 0.00 40 1017.1
20260507004016 53 0.0 0.0 0.00 0.00 0.00 38 1016.9
20260507003016 54 0.0 0.0 0.00 0.00 0.00 38 1017.0
20260507002016 54 0.0 0.0 0.00 0.00 0.00 37 1017.1
20260507001056 55 0.0 0.0 0.00 0.00 0.00 34 1016.9
20260507000016 57 0.0 0.0 0.00 0.00 0.00 34 1017.5
20260506235016 57 0.0 0.0 0.00 0.00 0.00 35 1017.5
20260506234056 58 0.0 0.0 0.00 0.00 0.00 32 1017.5
20260506233036 58 0.0 0.0 0.00 0.00 0.00 33 1017.6
20260506232016 58 0.0 0.0 0.00 0.00 0.00 33 1017.8
20260506231016 58 0.0 0.0 0.00 0.00 0.00 33 1017.9
20260506230016 56 0.0 0.0 0.00 0.00 0.00 34 1017.9
20260506225016 58 0.0 0.0 0.00 0.00 0.00 32 1018.0
20260506224036 59 0.0 0.0 0.00 0.00 0.00 34 1017.8
20260506223036 59 0.0 0.0 0.00 0.00 0.00 32 1017.9
20260506222016 57 0.0 0.0 0.00 0.00 0.00 34 1017.9
20260506221016 57 0.0 0.0 0.00 0.00 0.00 33 1018.1
20260506220016 58 0.0 0.0 0.00 0.00 0.00 32 1017.9
20260506215016 59 0.0 0.0 0.00 0.00 0.00 33 1017.9
20260506214016 59 0.0 0.0 0.00 0.00 0.00 33 1017.8
20260506213016 57 0.0 0.0 0.00 0.00 0.00 34 1017.9
20260506212016 55 0.0 0.0 0.00 0.00 0.00 36 1018.1
20260506211016 55 0.0 0.0 0.00 0.00 0.00 36 1018.2
20260506210016 56 0.0 0.0 0.00 0.00 0.00 35 1018.4
20260506205016 58 0.0 0.0 0.00 0.00 0.00 34 1018.4
20260506204016 57 0.0 0.0 0.00 0.00 0.00 37 1018.5
20260506203015 55 0.0 0.0 0.00 0.00 0.00 38 1018.7
20260506202016 56 0.0 0.0 0.00 0.00 0.00 36 1018.8
20260506201016 56 0.0 0.0 0.00 0.00 0.00 36 1018.9
20260506200016 55 0.0 0.0 0.00 0.00 0.00 38 1018.9
20260506195035 56 0.0 0.0 0.00 0.00 0.00 37 1018.9
20260506194016 56 0.0 0.0 0.00 0.00 0.00 36 1019.0
20260506193016 55 0.0 0.0 0.00 0.00 0.00 39 1019.0
20260506192015 56 0.0 0.0 0.00 0.00 0.00 37 1019.0
20260506191015 56 0.0 0.0 0.00 0.00 0.00 37 1019.0
20260506190016 56 0.0 0.0 0.00 0.00 0.00 38 1019.0
20260506185035 55 0.0 0.0 0.00 0.00 0.00 39 1019.1
20260506184015 55 0.0 0.0 0.00 0.00 0.00 37 1019.1
20260506183015 56 0.0 0.0 0.00 0.00 0.00 37 1019.2
20260506182035 54 0.0 0.0 0.00 0.00 0.00 38 1019.3
20260506181015 54 0.0 0.0 0.00 0.00 0.00 38 1019.4
20260506180035 54 0.0 0.0 0.00 0.00 0.00 42 1019.6
20260506175015 54 0.0 0.0 0.00 0.00 0.00 42 1019.6
20260506174015 54 0.0 0.0 0.00 0.00 0.00 40 1019.6
20260506173017 53 0.0 0.0 0.00 0.00 0.00 41 1019.7
20260506172037 53 0.0 0.0 0.00 0.00 0.00 39 1019.9
20260506171017 53 0.0 0.0 0.00 0.00 0.00 39 1019.7
20260506170017 52 0.0 0.0 0.00 0.00 0.00 41 1019.7
20260506165017 52 0.0 0.0 0.00 0.00 0.00 42 1019.8
20260506164017 52 0.0 0.0 0.00 0.00 0.00 42 1019.9
20260506163017 52 0.0 0.0 0.00 0.00 0.00 46 1020.0
20260506162017 52 0.0 0.0 0.00 0.00 0.00 43 1019.9
20260506161057 52 0.0 0.0 0.00 0.00 0.00 42 1019.9
20260506160017 54 0.0 0.0 0.00 0.00 0.00 41 1019.8
20260506155037 53 0.0 0.0 0.00 0.00 0.00 44 1019.8
20260506154017 53 0.0 0.0 0.00 0.00 0.00 42 1019.8
20260506153057 53 0.0 0.0 0.00 0.00 0.00 46 1019.8
20260506152017 53 0.0 0.0 0.00 0.00 0.00 44 1019.8
20260506151057 53 0.0 1.0 0.00 0.00 0.00 49 1019.9
20260506150017 52 0.0 2.0 0.00 0.00 0.00 47 1019.8
20260506145017 59 0 4.0 9.0 0.00 0.00 0.00 36 1019.9
20260506144017 58 315 3.0 6.0 0.00 0.00 0.00 40 1019.8
20260506143017 58 270 3.0 7.0 0.00 0.00 0.00 43 1019.8
20260506142016 57 293 4.0 7.0 0.00 0.00 0.00 39 1019.6
20260506141016 57 270 2.0 4.0 0.00 0.00 0.00 39 1019.6
20260506140037 56 315 2.0 5.0 0.00 0.00 0.00 42 1019.5
20260506135016 55 270 2.0 5.0 0.00 0.00 0.00 38 1019.4
20260506134036 54 338 2.0 4.0 0.00 0.00 0.00 42 1019.4
20260506133017 54 338 1.0 3.0 0.00 0.00 0.00 40 1019.4
20260506132017 53 315 1.0 5.0 0.00 0.00 0.00 45 1019.2
20260506131016 53 315 2.0 3.0 0.00 0.00 0.00 42 1019.2
20260506130036 53 270 2.0 4.0 0.00 0.00 0.00 46 1019.0
20260506125036 51 293 1.0 3.0 0.00 0.00 0.00 46 1019.0
20260506124016 49 315 2.0 4.0 0.00 0.00 0.00 49 1018.9
20260506123016 47 293 2.0 5.0 0.00 0.00 0.00 53 1019.0
20260506122016 45 293 2.0 5.0 0.00 0.00 0.00 55 1019.1
20260506121016 41 270 2.0 4.0 0.00 0.00 0.00 63 1018.9
20260506120017 37 270 2.0 5.0 0.00 0.00 0.00 73 1018.6
20260506115036 35 293 1.0 2.0 0.00 0.00 0.00 76 1018.6
20260506114502 35 293 1.0 1.0 0.00 0.00 0.00
20260506113536 35 0.0 1.0 0.00 0.00 0.00
20260506113039 36 0.0 0.0 0.00 0.00 0.00
20260506112517 36 0.0 0.0 0.00 0.00 0.00 73
20260506112016 36 0.0 0.0 0.00 0.00 0.00 72 1017.9
20260506111016 37 0.0 0.0 0.00 0.00 0.00 71 1017.9
20260506110016 37 0.0 0.0 0.00 0.00 0.00 70 1017.7
20260506105016 38 0.0 0.0 0.00 0.00 0.00 70 1017.6
20260506104016 38 0.0 0.0 0.00 0.00 0.00 69 1017.5
20260506103016 38 0.0 0.0 0.00 0.00 0.00 69 1017.5
20260506102016 38 0.0 0.0 0.00 0.00 0.00 69 1017.4
20260506101036 39 0.0 0.0 0.00 0.00 0.00 68 1017.3
20260506100016 39 0.0 0.0 0.00 0.00 0.00 68 1017.4
20260506095036 39 0.0 0.0 0.00 0.00 0.00 68 1017.4
20260506094036 39 0.0 0.0 0.00 0.00 0.00 67 1017.4
20260506093016 39 0.0 0.0 0.00 0.00 0.00 67 1017.3
20260506092016 39 0.0 0.0 0.00 0.00 0.00 67 1017.2
20260506091016 39 0.0 0.0 0.00 0.00 0.00 67 1017.1
20260506090016 39 0.0 0.0 0.00 0.00 0.00 66 1017.1
20260506085016 39 0.0 0.0 0.00 0.00 0.00 66 1016.8
20260506084016 39 0.0 0.0 0.00 0.00 0.00 66 1016.8
20260506083015 39 0.0 0.0 0.00 0.00 0.00 66 1016.7
20260506082015 39 0.0 0.0 0.00 0.00 0.00 66 1016.6
20260506081015 39 0.0 0.0 0.00 0.00 0.00 66 1016.6
20260506073015 39 0.0 0.0 0.00 0.00 0.00 66 1016.5